Powrót do katalogu

FENGYUN 1C DEB

AktywnySSO
NORAD 30299·DEBRIS·🇨🇳 China

Wystrzelony May 10, 1999 z Taiyuan Satellite Launch Center

Loading…

Następne Przeloty (najbliższe 24 godziny)

TLE

ŚwieżeSource: Space-Track

Epoka: Sep 14, 2026, 03:42 UTC

1 30299U 99025ZL  26257.15422709  .00001482  00000-0  84153-3 0  9999
2 30299  99.0804 336.3826 0101363 317.8448  70.4310 14.09009038  1498

Śledź FENGYUN 1C DEB w czasie rzeczywistym z AllMySat

Download on the App Store